This demonstration page uses our WeatherBlox Daily Observations layout. Learn more.

Left ArrowRight Arrow

Hourly Observations for October 29, 2021

Temp ( °F °C ) Dew Point ( °F °C ) Humidity (%) Winds ( mph kmh ) Pressure ( in mb ) Visibility ( mi km ) Precip ( " mm )
12:53 am 00:53 Clear 53 11.7 20 -6.7 27 27 ENE 6 9 30.10 1019 10 16 0.00 0.00
1:53 am 01:53 Clear 46 7.8 19 -7.2 34 34 NNW 7 11 30.13 1020 10 16 0.00 0.00
2:53 am 02:53 Clear 44 6.7 19 -7.2 37 37 NNW 8 13 30.14 1021 10 16 0.00 0.00
3:53 am 03:53 Clear 43 6.1 20 -6.7 40 40 N 6 9 30.15 1021 10 16 0.00 0.00
4:53 am 04:53 Clear 43 6.1 21 -6.1 42 42 N 6 9 30.15 1021 10 16 0.00 0.00
5:53 am 05:53 Clear 41 5 21 -6.1 45 45 N 6 9 30.16 1021 10 16 0.00 0.00
6:53 am 06:53 Clear 41 5 22 -5.6 47 47 NW 7 11 30.18 1022 10 16 0.00 0.00
7:53 am 07:53 Clear 40 4.4 22 -5.6 49 49 NNW 9 15 30.20 1023 10 16 0.00 0.00
8:53 am 08:53 Sunny 44 6.7 23 -5 43 43 WSW 3 6 30.22 1024 10 16 0.00 0.00
9:53 am 09:53 Sunny 52 11.1 24 -4.4 34 34 W 6 9 30.24 1024 10 16 0.00 0.00
10:53 am 10:53 Sunny 58 14.4 23 -5 26 26 NW 5 7 30.23 1024 10 16 0.00 0.00
11:53 am 11:53 Sunny 63 17.2 24 -4.4 23 23 N 5 7 30.20 1023 10 16 0.00 0.00
12:53 pm 12:53 Sunny 67 19.4 24 -4.4 20 20 Calm 30.17 1022 10 16 0.00 0.00
1:53 pm 13:53 Sunny 68 20 24 -4.4 19 19 Calm 30.14 1021 10 16 0.00 0.00
2:53 pm 14:53 Sunny 70 21.1 24 -4.4 18 18 SW 7 11 30.10 1019 10 16 0.00 0.00
3:53 pm 15:53 Sunny 73 22.8 23 -5 15 15 N 5 7 30.05 1018 10 16 0.00 0.00
4:53 pm 16:53 Sunny 73 22.8 23 -5 15 15 SSW 6 9 30.03 1017 10 16 0.00 0.00
5:53 pm 17:53 Sunny 73 22.8 22 -5.6 15 15 VRB 3 6 30.01 1016 10 16 0.00 0.00
6:53 pm 18:53 Sunny 71 21.7 22 -5.6 16 16 Calm 30.00 1016 10 16 0.00 0.00
7:53 pm 19:53 Clear 67 19.4 22 -5.6 18 18 S 3 6 30.01 1016 10 16 0.00 0.00
8:53 pm 20:53 Clear 62 16.7 22 -5.6 21 21 S 5 7 30.01 1016 9 14 0.00 0.00
9:53 pm 21:53 Clear 58 14.4 22 -5.6 25 25 SE 3 6 30.00 1016 10 16 0.00 0.00
10:53 pm 22:53 Clear 53 11.7 20 -6.7 27 27 Calm 30.00 1016 10 16 0.00 0.00
11:53 pm 23:53 Clear 50 10 18 -7.8 28 28 Calm 29.99 1016 10 16 0.00 0.00

Powered by AerisWeather